Regional Weather Roundup
Issued by NWS

Home | Current Version | Previous Version | Graphics & Text | Print | Product List | Glossary On
Versions: 1 2 3 4 5 6 7 8 9 10 11 12 13 14 15 16 17 18 19 20 21 22 23 24 25 26 27 28 29 30 31 32 33 34 35 36 37 38 39 40 41 42 43 44 45 46 47 48 49 50
000
ASUS43 KMPX 110001
RWRMN
WEATHER ROUNDUP FOR MINNESOTA
NATIONAL WEATHER SERVICE TWIN CITIES/CHANHASSEN MN
600 PM CST WED FEB 10 2016


NOTE: "FAIR" INDICATES FEW OR NO CLOUDS BELOW 12,000 FEET WITH NO
SIGNIFICANT WEATHER AND/OR OBSTRUCTIONS TO VISIBILITY. N/A MEANS
CURRENT SKY AND/OR WEATHER CONDITIONS ARE NOT AVAILABLE.

MNZ060>063-068>070-110100-
   Twin Cities Metro

CITY           SKY/WX    TMP DP  RH WIND       PRES   REMARKS
TWIN CITIES    CLOUDY    12  -2  53 N8        30.17R WCI   0
6HR MIN TEMP:   9; 6HR MAX TEMP:  13;

ST PAUL        CLOUDY    11  -4  51 NE7       30.19R WCI   0
CRYSTAL        CLOUDY    11  -3  53 N7        30.17R WCI   0
BLAINE         MOCLDY    10   0  61 N6        30.17R WCI   1
LAKEVILLE      CLOUDY     9  -2  61 E5        30.16R WCI   0
EDEN PRAIRIE   CLOUDY    13  -5  44 NE7       30.15R WCI   3
6HR MIN TEMP:  10; 6HR MAX TEMP:  14;

SOUTH ST PAUL  CLOUDY    11  -4  49 NE6       30.17R WCI   1
LAKE ELMO      CLOUDY    10   0  61 CALM      30.17R
$$
MNZ001>005-007-008-013>017-022>024-027-028-110100-
   Northwest Minnesota

CITY           SKY/WX    TMP DP  RH WIND       PRES   REMARKS
BEMIDJI        CLOUDY     3  -5  66 N5        30.19R WCI  -6
HALLOCK        CLOUDY     7  -2  66 N8        30.29R WCI  -6
ROSEAU         CLEAR     -2 -11  65 CALM      30.27R
WARROAD        PTCLDY    -6 -13  71 E3        30.26R
THIEF RVR FALL CLOUDY     7  -6  56 NW3       30.25R
CROOKSTON      CLOUDY     9   0  66 N6        30.27S WCI  -1
FOSSTON        CLOUDY     3  -6  66 NE5       30.22R WCI  -6
DETROIT LAKES  CLOUDY    12   3  67 N8        30.19R WCI   1
MOORHEAD       CLOUDY    10   1  67 N13       30.24R WCI  -5
PARK RAPIDS    CLOUDY    10  -6  48 N6        30.16R WCI   0
MAHNOMEN       CLOUDY     7  -1  71 N13       30.20R WCI  -9
$$
MNZ006-009>011-018-025>026-110100-
   North Central Minnesota

CITY           SKY/WX    TMP DP  RH WIND       PRES   REMARKS
BAUDETTE       CLEAR     -8 -17  64 NW6       30.23R WCI -21
FLAG ISLAND    PTCLDY    -2  -9  71 CALM      30.24S
INTL FALLS     CLEAR     -7 -14  71 CALM      30.21R
6HR MIN TEMP:  -9; 6HR MAX TEMP:   2;

WASKISH        CLOUDY     1  -9  60 NW5       30.22R WCI  -8
LONGVILLE      PTCLDY     3  -8  60 CALM      30.18R
GRAND RAPIDS   MOCLDY     3  -8  60 N8        30.15R WCI -10
CRANE LAKE     CLEAR     -8 -13  77 CALM      30.22R
ORR            CLEAR     -2 -11  65 CALM      30.15R
COOK           CLEAR      0  -9  65 CALM      30.17R
WALKER         CLOUDY     5  -7  57 CALM      30.17R
$$
MNZ012-019>021-037-110100-
   Northeast Minnesota

CITY           SKY/WX    TMP DP  RH WIND       PRES   REMARKS
DULUTH         PTCLDY     5 -10  50 N7        30.12R WCI  -7
6HR MIN TEMP:   5; 6HR MAX TEMP:  10;

ELY            CLEAR     -2  -8  78 NW3       30.14R
HIBBING        CLEAR      2 -10  57 N6        30.15R WCI  -9
EVELETH        CLEAR      3  -8  60 CALM      30.16R
DULUTH HARBOR  CLEAR     12  -6  44 NW10      30.20R WCI  -1
TWO HARBORS    CLEAR      9  -6  52 CALM      30.14R
SILVER BAY     CLEAR      5  -6  61 CALM      30.14R
GRAND MARAIS     N/A      4  -8  57 W3        30.17R
G MARAIS ARPRT CLEAR     -4 -11  71 NW9       30.03S WCI -20
$$
MNZ029>031-032-039>041-046>048-054>057-064-110100-
   West Central Minnesota

CITY           SKY/WX    TMP DP  RH WIND       PRES   REMARKS
FERGUS FALLS   CLOUDY    12   0  57 CALM      30.23R
WHEATON        CLOUDY    12   7  79 CALM      30.22R
MORRIS         CLOUDY    12   3  67 N3        30.17R
ALEXANDRIA     CLOUDY    12  -2  53 N5        30.16R WCI   4
ELBOW LAKE     CLOUDY    14   0  54 CALM      30.18R HAZE
WADENA         CLOUDY     9  -2  61 N7        30.17R WCI  -3
GLENWOOD       CLOUDY    10   0  61 N3        30.16R
APPLETON       CLOUDY    12   5  73 N5        30.19R WCI   4
BENSON         CLOUDY    12   0  57 CALM      30.18R
ORTONVILLE     FLURRIES  12   7  79 NE3       30.18R
MADISON        FLURRIES  14   9  79 NE3       30.18R
WILLMAR        CLOUDY    16   3  57 N5        30.17R WCI   9
$$
MNZ033>034-036-042>043-049>051-058-059-110100-
   Central Minnesota

CITY           SKY/WX    TMP DP  RH WIND       PRES   REMARKS
ST CLOUD       CLOUDY    11  -3  53 N7        30.17R WCI   0
6HR MIN TEMP:   7; 6HR MAX TEMP:  13;

SAUK CENTRE    CLOUDY    10  -2  56 CALM      30.16R
PAYNESVILLE    CLOUDY    11   1  62 N5        30.16R WCI   3
AITKIN         CLEAR      7 -11  43 CALM      30.16R
PINE RIVER     MOCLDY     7  -6  56 N7        30.21R WCI  -5
BRAINERD       CLOUDY     8  -6  52 NW5       30.17R WCI   0
STAPLES        CLOUDY     9  -6  52 CALM      30.18R
LONG PRAIRIE   CLOUDY    12  -4  48 N6        30.14R WCI   3
LITTLE FALLS   CLOUDY    12  -6  44 CALM      30.18R
LITCHFIELD     CLOUDY    12   1  62 N3        30.16R
BUFFALO        CLOUDY    12  -3  51 NE6       30.18R WCI   2
MAPLE LAKE     CLOUDY    12   0  59 N5        30.17R WCI   4
$$
MNZ037-044-045-052-053-110100-
   East Central Minnesota

CITY           SKY/WX    TMP DP  RH WIND       PRES   REMARKS
PRINCETON      CLOUDY    10  -4  52 CALM      30.17R
MORA           CLEAR     10  -6  48 CALM      30.19R
CAMBRIDGE      CLOUDY    10  -2  56 CALM      30.16R
RUSH CITY      CLEAR      6  -4  62 CALM      30.18R
MOOSE LAKE     CLEAR     10  -9  40 NW3       30.14S
HINCKLEY       FAIR       9  -6  52 CALM      30.17R
CLOQUET        CLEAR      7 -11  43 NW5       30.13R WCI  -2
MCGREGOR       CLEAR      9  -6  52 NW3       30.16R
$$
MNZ071>073-080-081-089-090-097-098-110100-
   Southwest Minnesota

CITY           SKY/WX    TMP DP  RH WIND       PRES   REMARKS
MONTEVIDEO     FLURRIES  10   3  72 NE3       30.19R
GRANITE FALLS  CLOUDY    13   6  74 NE5       30.18R WCI   5
CANBY          FLURRIES  15  10  81 NE6       30.17R WCI   7
MARSHALL       FLURRIES  11   5  77 E3        30.16R
REDWOOD FALLS  CLOUDY    13   2  61 NE6       30.15R WCI   4
OLIVIA         CLOUDY    16   3  57 CALM      30.16R
PIPESTONE      CLOUDY    12   3  67 E8        30.08R WCI   1
WINDOM         CLOUDY    10   3  72 CALM      30.11R
WORTHINGTON    CLOUDY    10   3  72 NE10      30.10R WCI  -3
JACKSON        FLURRIES  12   5  73 NE9       30.10R WCI   0
TRACY          CLOUDY    12   7  81 E3        30.14R
SLAYTON        CLOUDY    10   6  85 E7        30.11R WCI  -2
$$
MNZ065>067-074>077-082>085-091>093-110100-
   South Central Minnesota

CITY           SKY/WX    TMP DP  RH WIND       PRES   REMARKS
MANKATO        CLOUDY    12   0  57 NE6       30.14R WCI   3
NEW ULM        CLOUDY    12   1  62 NE6       30.15R WCI   3
ST JAMES       CLOUDY     9   1  72 N5        30.15R WCI   0
FAIRMONT       CLOUDY    10   0  61 NE3       30.11R
GLENCOE        CLOUDY    13   2  62 N5        30.15R WCI   5
FARIBAULT        N/A     10   0  61 NE6       30.14R WCI   1
OWATONNA       MOCLDY     9   0  66 NE5       30.13R WCI   0
WASECA         CLOUDY    12   1  62 NE3       30.14R
ALBERT LEA     PTCLDY    10   1  67 NE5       30.11R WCI   2
$$
MNZ078>079-086>088-094>096-110100-
   Southeast Minnesota

CITY           SKY/WX    TMP DP  RH WIND       PRES   REMARKS
ROCHESTER      PTCLDY     5  -3  69 N7        30.11R WCI  -7
6HR MIN TEMP:   5; 6HR MAX TEMP:  10; 6HR PCP: TRACE;

RED WING       CLOUDY     9  -6  52 CALM      30.17R
STANTON        CLOUDY    10  -1  60 NE3       30.15R
DODGE CENTER   MOCLDY     7  -4  61 N8        30.10R WCI  -6
WINONA         PTCLDY    12   1  62 CALM      30.17R
AUSTIN         CLEAR      7   0  72 N3        30.10R
PRESTON        CLEAR      4  -4  67 N5        30.11R WCI  -5
$$
ABBREVIATIONS USED IN REMARKS
   TC - TEMPERATURES IN CELSIUS
  WCI - WIND CHILL INDEX
   HX - HEAT INDEX
  VSB - VISIBILITY
$$



USA.gov is the U.S. government's official web portal to all federal, state and local government web resources and services.